This is the latest recevied weather packets stored in our database for station/object KB1YYC. If no packets are shown the sender has not sent any weather packets the latest 10 day(s).
| Time | Temp. | Humidity | Pressure | Rain* | Wind** | Luminosity | Snow |
|---|---|---|---|---|---|---|---|
| 1778201785 | 7.78° C | 66% | 1006.9 hPa | 0 mm | - | 0 W/m² | - |
| 1778201481 | 8.33° C | 68% | 1006.7 hPa | 0 mm | - | 0 W/m² | - |
| 1778201177 | 8.33° C | 64% | 1006.6 hPa | 0 mm | - | 0 W/m² | - |
| 1778200874 | 8.33° C | 63% | 1006.5 hPa | 0 mm | - | 0 W/m² | - |
| 1778200570 | 8.33° C | 63% | 1006.5 hPa | 0 mm | - | 0 W/m² | - |
| 1778200268 | 8.89° C | 60% | 1006.6 hPa | 0 mm | - | 0 W/m² | - |
| 1778199964 | 8.89° C | 60% | 1006.3 hPa | 0 mm | - | 0 W/m² | - |
| 1778199662 | 9.44° C | 59% | 1006.1 hPa | 0 mm | - | 0 W/m² | - |
| 1778199357 | 10° C | 57% | 1006.3 hPa | 0 mm | - | 0 W/m² | - |
| 1778199053 | 10° C | 56% | 1005.9 hPa | 0 mm | - | 0 W/m² | - |
| 1778198749 | 10.56° C | 54% | 1005.8 hPa | 0 mm | - | 0 W/m² | - |
| 1778198447 | 11.11° C | 51% | 1006 hPa | 0 mm | - | 1 W/m² | - |
| 1778198143 | 11.67° C | 46% | 1005.9 hPa | 0 mm | - | 1 W/m² | - |
| 1778197841 | 11.67° C | 44% | 1005.9 hPa | 0 mm | - | 2 W/m² | - |
| 1778197537 | 12.22° C | 46% | 1005.8 hPa | 0 mm | - | 4 W/m² | - |
| 1778197234 | 12.22° C | 43% | 1005.9 hPa | 0 mm | - | 5 W/m² | - |
| 1778196930 | 12.78° C | 41% | 1005.7 hPa | 0 mm | - | 7 W/m² | - |
| 1778196629 | 13.33° C | 38% | 1005.8 hPa | 0 mm | - | 9 W/m² | - |
| 1778196325 | 13.33° C | 37% | 1005.8 hPa | 0 mm | - | 11 W/m² | - |
| 1778196023 | 13.33° C | 37% | 1005.5 hPa | 0 mm | - | 13 W/m² | - |
| 1778195719 | 13.89° C | 38% | 1005.5 hPa | 0 mm | - | 14 W/m² | - |
| 1778195416 | 13.89° C | 36% | 1005.4 hPa | 0 mm | - | 15 W/m² | - |
| 1778195113 | 13.89° C | 35% | 1005.5 hPa | 0 mm | - | 16 W/m² | - |
| 1778194809 | 13.89° C | 35% | 1005.5 hPa | 0 mm | - | 18 W/m² | - |
| 1778194504 | 14.44° C | 35% | 1005.4 hPa | 0 mm | - | 22 W/m² | - |
* Rain latest hour (hover to see other rain measurements)
** Current wind speed in m/s (hover to see current wind gust speed)